Flag for Kosovo Weather past 2 weeks in Prizren, Kosovo

Now
54 °F

Clear.


Feels Like: 54 °F
Forecast: 58 / 81 °F
Wind: 2 mph from East

Location: Skopje-Petrovec

Current Time: Jun 3, 2015 at 5:40:34 AM

Latest Report: Jun 3, 2015 at 4:30 AM


Visibility: 10 mi

Pressure: 30.15 "Hg

Humidity: 88%

Dew point: 50 °F

Location of PrizrenLocation

Historic Weather in Prizren — Graph

°F

Prizren temperature yesterday

Maximum temperature yesterday: 86 °F (at 4:00 PM)
Minimum temperature yesterday: 54 °F (at 4:00 AM)
Average temperature yesterday: 70 °F

Past Weeks' High & Low Weather Summary

 TemperatureHumidityPressure
High86 °F (Jun 2, 4:00 PM)100% (May 25, 3:00 AM)30.15 "Hg (May 25, 3:00 AM)
Low43 °F (May 30, 3:00 AM)19% (May 31, 4:00 PM)29.71 "Hg (May 26, 5:30 PM)
Average65 °F63%29.93 "Hg
* Reported May 19 4:00 AM — Jun 3 4:30 AM, Prizren, Weather by CustomWeather, © 2015

Note: Actual official high and low records may vary slightly from our data, if they occured in-between our weather recording intervals... More about our weather records

Advertising

Prizren weather history for previous 24 hours

 ConditionsComfort  
Time TempWeatherWind HumidityBarometerVisibility
4:30 AM
Wed, Jun 3
54 °FClear.2 mph88%30.15 "Hg10 mi
4:00 AM52 °FClear.No wind94%30.15 "Hg10 mi
3:30 AM54 °FClear.2 mph88%30.15 "Hg10 mi
3:00 AM54 °FClear.No wind88%30.15 "Hg10 mi
2:30 AM57 °FClear.No wind77%30.12 "Hg10 mi
2:00 AM55 °FPassing clouds.No wind82%30.12 "HgN/A
1:30 AM57 °FPassing clouds.No wind82%30.12 "HgN/A
1:00 AM59 °FPassing clouds.1 mph77%30.12 "HgN/A
12:30 AM59 °FPassing clouds.1 mph77%30.12 "HgN/A
12:00 AM64 °FPassing clouds.6 mph64%30.12 "HgN/A
11:30 PM
Tue, Jun 2
63 °FPassing clouds.5 mph68%30.12 "HgN/A
11:00 PM64 °FPassing clouds.1 mph64%30.09 "HgN/A
10:30 PM66 °FPassing clouds.1 mph64%30.09 "HgN/A
10:00 PM68 °FPassing clouds.8 mph56%30.09 "HgN/A
9:30 PM70 °FPassing clouds.8 mph53%30.09 "HgN/A
9:00 PM73 °FPassing clouds.9 mph47%30.07 "HgN/A
8:30 PM75 °FPassing clouds.8 mph44%30.07 "HgN/A
8:00 PM79 °FPassing clouds.10 mph37%30.04 "HgN/A
7:30 PM79 °FPassing clouds.5 mph37%30.04 "HgN/A
7:00 PM79 °FPassing clouds.3 mph37%30.04 "HgN/A
6:30 PM84 °FPassing clouds.5 mph29%30.04 "HgN/A
6:00 PM82 °FPassing clouds.2 mph30%30.04 "HgN/A
5:30 PM84 °FPassing clouds.3 mph25%30.04 "HgN/A
5:00 PM86 °FPassing clouds.5 mph25%30.04 "HgN/A
4:30 PM84 °FPassing clouds.5 mph27%30.04 "HgN/A
4:00 PM86 °FPassing clouds.2 mph25%30.04 "HgN/A
3:30 PM84 °FPassing clouds.2 mph27%30.04 "HgN/A
3:00 PM84 °FPassing clouds.5 mph27%30.04 "HgN/A
2:30 PM82 °FPassing clouds.5 mph30%30.04 "HgN/A
2:00 PM84 °FPassing clouds.2 mph29%30.07 "HgN/A
1:30 PM82 °FPassing clouds.2 mph28%30.07 "HgN/A
1:00 PM81 °FPassing clouds.2 mph34%30.07 "HgN/A
12:30 PM82 °FPassing clouds.5 mph32%30.07 "HgN/A
12:00 PM79 °FSunny.2 mph37%30.09 "Hg10 mi
11:30 AM77 °FSunny.2 mph39%30.09 "Hg10 mi
11:00 AM77 °FSunny.3 mph42%30.09 "Hg10 mi
10:30 AM75 °FSunny.2 mph47%30.09 "Hg10 mi
10:00 AM72 °FSunny.2 mph50%30.12 "Hg10 mi
9:30 AM70 °FSunny.1 mph57%30.12 "Hg10 mi
9:00 AM68 °FSunny.1 mph60%30.12 "Hg10 mi
8:30 AM66 °FSunny.1 mph64%30.12 "Hg10 mi
8:00 AM64 °FSunny.1 mph68%30.12 "Hg10 mi
7:30 AM63 °FPassing clouds.No wind73%30.12 "HgN/A
7:00 AM61 °FPassing clouds.No wind72%30.12 "HgN/A
6:30 AM57 °FPassing clouds.2 mph82%30.09 "HgN/A
5:30 AM54 °FPassing clouds.1 mph94%30.09 "HgN/A
5:00 AM54 °FPassing clouds.2 mph88%30.09 "HgN/A
Weather by CustomWeather, © 2015

See weather overviewHow to use our weather pages